Wind_Speed
60 63 65 66 69 71 72 73 74 78 78 71 77 72 77 80 83 85 88 94 95 103 102 104 103 101 101 96 95 91 87 84 84 85 86 87 85 82 79 79 79 76 74 75
65 68 70 71 71 72 75 77 79 79 83 75 77 80 80 78 76 79 84 90 94 98 106 102 99 99 102 102 100 96 93 88 85 82 80 82 81 82 81 80 79 78 77 74
65 67 67 68 71 73 75 79 83 85 85 86 75 76 76 76 76 77 81 87 95 100 105 108 102 103 99 102 104 106 98 95 90 85 82 84 85 83 81 80 78 73 76 75
69 68 70 71 73 72 75 81 88 89 84 81 72 67 72 71 73 75 80 85 92 96 103 108 111 105 102 100 103 105 105 101 95 90 86 82 81 81 79 78 76 70 66 70
68 71 69 69 70 76 78 86 90 90 84 77 71 58 59 59 61 65 73 84 87 92 94 101 105 104 107 102 98 99 102 102 100 95 92 86 80 79 80 75 75 72 72 74
73 73 71 72 78 82 86 89 89 86 84 81 72 59 55 50 50 57 62 70 79 85 87 90 97 99 98 98 99 99 99 101 102 98 94 90 86 81 78 78 77 76 72 71
71 71 72 73 81 87 89 87 83 84 82 77 68 58 50 46 42 47 54 62 70 78 81 84 87 91 97 93 98 94 97 99 99 99 97 93 87 84 83 81 78 78 79 76
70 75 72 80 84 84 84 83 82 80 76 68 59 48 42 39 36 37 43 51 57 64 74 80 83 83 87 90 90 94 93 97 99 101 99 95 95 89 86 85 83 82 78 78
70 78 80 81 83 82 80 81 81 77 67 56 44 40 37 34 32 32 35 40 47 52 56 69 75 79 77 73 75 79 85 92 93 95 95 96 94 91 88 87 85 85 84 82
75 78 82 78 78 79 80 79 75 62 49 42 37 35 33 32 33 30 29 33 37 42 47 54 67 73 75 71 67 70 76 82 90 93 94 94 93 90 87 85 83 81 82 81
74 78 76 74 75 78 77 74 63 48 37 31 32 32 29 28 27 29 29 29 32 35 39 43 52 61 67 70 66 68 69 74 80 85 91 91 92 89 87 85 82 81 80 80
75 75 70 73 74 75 74 63 50 39 33 31 29 28 27 27 29 27 29 30 30 31 33 37 40 47 55 59 63 66 68 68 72 74 81 88 90 91 87 87 84 83 82 79
73 69 65 71 70 70 68 53 41 30 28 27 24 26 29 32 34 35 32 30 29 28 29 30 32 37 43 53 58 60 63 65 66 71 75 81 88 88 88 85 86 86 84 81
70 68 64 68 68 68 62 47 34 25 25 20 23 24 27 30 30 33 34 29 25 24 24 26 26 28 32 38 45 52 60 62 66 66 69 74 79 83 86 86 86 84 80 78
67 62 61 65 64 67 53 37 24 18 17 20 21 28 30 32 40 39 30 23 20 18 16 20 26 24 25 25 29 38 50 60 63 65 67 69 71 74 80 84 83 78 73 80
62 55 57 59 59 64 45 25 18 17 16 24 28 29 36 46 51 39 36 25 20 14 10 14 21 21 20 18 22 27 37 47 54 60 65 68 68 67 71 78 82 80 78 72
62 52 55 53 55 59 39 15 16 18 16 26 23 27 34 47 37 37 36 29 24 16 6 8 15 17 19 16 15 20 27 35 43 53 60 64 66 67 70 73 76 76 76 76
58 49 54 54 52 56 33 7 12 15 16 24 22 23 41 35 41 39 35 34 31 21 10 3 8 12 14 14 15 16 23 29 36 45 53 58 63 65 67 70 72 76 78 84
51 48 50 51 51 53 30 4 9 11 15 20 23 27 33 36 43 45 38 34 34 22 15 10 10 12 15 16 17 17 20 24 29 36 43 52 58 61 64 66 70 75 80 83
48 48 48 48 48 52 24 2 4 10 12 19 22 28 28 32 39 43 44 40 31 25 22 23 22 21 21 21 19 17 19 16 17 22 29 38 47 55 60 64 66 70 75 80
48 50 49 46 47 50 17 2 3 7 10 14 16 22 27 27 30 34 42 43 36 26 27 27 27 25 22 20 18 17 12 9 8 11 18 24 33 42 49 56 61 62 64 67
49 47 46 45 46 43 13 5 4 5 9 12 12 17 20 21 23 24 30 40 42 34 21 22 23 22 19 16 12 12 6 3 6 8 10 15 21 25 32 37 42 48 52 54
48 46 45 44 45 33 8 4 8 3 5 9 14 18 17 19 21 17 19 29 34 35 32 18 15 15 13 14 10 6 3 3 3 2 5 7 11 17 23 28 34 40 42 45
44 42 44 44 45 24 6 2 3 2 7 9 11 15 18 18 18 17 20 20 21 24 26 26 24 13 7 7 6 4 4 4 3 4 5 7 9 10 13 17 22 26 30 35
39 41 41 38 38 16 4 6 5 5 10 12 11 14 15 15 12 13 12 11 13 15 11 15 14 14 15 7 7 7 9 11 15 18 19 20 22 24 25 27 29 32 38 43
37 38 41 36 30 19 6 5 3 6 11 13 12 13 15 15 14 13 9 7 8 4 6 9 9 10 5 3 4 5 7 9 11 13 16 17 18 20 23 27 32 35 38 42
Wind_Direction
300 300 301 300 301 301 299 298 297 294 290 285 284 283 273 263 256 254 254 254 254 252 251 250 248 246 247 247 247 247 245 245 246 248 250 251 252 253 253 252 253 253 255 257
301 302 303 303 303 302 301 299 295 290 290 292 291 288 280 274 266 261 257 250 248 250 248 248 248 246 245 244 246 245 245 243 243 245 247 249 248 250 250 252 251 255 258 258
307 305 304 302 303 303 300 297 292 293 293 294 294 290 282 275 266 259 253 251 246 243 244 245 245 246 245 244 242 244 243 245 245 243 241 243 248 252 252 253 255 257 257 260
306 305 303 301 303 302 299 298 294 297 301 302 301 294 286 278 268 257 253 250 248 243 241 243 244 243 244 242 240 240 242 241 242 240 241 241 244 249 251 252 252 251 253 255
308 307 306 307 306 307 308 303 303 308 311 310 307 300 287 277 268 261 252 250 248 246 243 241 243 244 242 244 239 238 240 241 240 239 240 241 242 243 243 244 250 250 249 254
308 310 311 314 314 313 309 308 312 314 315 314 313 309 298 288 270 260 253 248 247 245 244 241 241 243 241 240 236 236 239 241 240 238 237 238 237 240 242 244 242 243 249 252
312 314 319 319 321 315 309 315 316 317 316 315 314 310 303 293 282 265 257 250 244 242 244 244 243 241 242 239 235 236 236 236 239 240 237 237 236 236 240 242 243 245 245 245
317 320 322 324 321 314 316 318 320 320 318 316 313 309 304 297 286 271 260 255 252 248 243 241 243 243 242 242 238 236 233 236 236 238 238 236 238 238 237 239 241 243 245 246
321 324 327 325 319 317 320 321 323 322 321 317 316 313 312 306 296 282 268 256 250 248 243 242 241 242 241 241 239 234 234 235 236 235 237 236 237 238 238 239 239 241 242 243
325 327 325 324 320 320 323 325 324 323 320 319 317 320 323 318 308 300 285 268 257 250 245 242 238 237 240 240 237 232 231 232 232 232 234 237 236 235 236 238 239 241 243 245
327 327 326 322 320 323 328 327 327 324 322 325 327 327 322 317 311 302 293 274 262 254 245 244 240 238 237 236 234 232 229 230 232 233 234 236 236 233 234 236 239 241 243 245
326 330 329 319 326 329 333 333 333 333 336 338 339 337 333 321 311 307 300 290 276 265 254 250 244 239 237 235 233 229 226 226 228 230 231 233 235 234 232 235 238 241 243 246
328 335 329 324 332 334 336 339 339 344 347 351 357 356 346 341 338 328 317 302 289 272 261 254 250 246 239 236 233 229 228 226 225 228 229 231 233 235 235 234 236 239 242 245
334 335 330 329 335 337 346 344 349 355 353 3 359 355 353 356 344 335 333 322 307 285 266 254 249 241 241 236 235 234 229 228 226 225 227 228 230 233 235 235 237 238 241 243
336 333 333 336 339 342 345 346 352 359 8 358 359 1 357 357 358 353 351 339 326 304 274 251 243 238 233 235 234 230 231 230 229 226 225 226 228 230 233 236 238 238 238 242
338 334 337 340 340 342 345 350 350 6 9 11 11 11 5 1 351 358 0 356 347 337 292 244 235 233 229 221 226 226 227 228 228 224 224 224 225 227 229 232 235 237 238 240
338 335 338 341 342 345 345 360 1 3 8 11 16 16 4 349 3 7 7 10 16 7 336 223 223 213 218 212 211 216 224 226 225 224 223 223 224 225 227 230 233 235 238 236
335 339 341 341 344 350 345 358 358 6 12 359 2 4 346 7 11 18 21 22 23 24 45 136 194 190 192 189 188 205 215 218 220 223 224 222 222 224 227 230 231 231 231 239
334 340 344 342 343 350 343 349 5 7 352 353 353 340 2 19 25 32 32 30 35 29 54 81 118 140 153 163 180 193 200 204 214 222 224 224 223 222 225 229 230 232 235 238
332 342 345 343 343 349 339 300 340 4 6 6 351 351 6 23 35 41 40 35 40 54 70 87 97 113 125 144 165 181 182 197 218 229 227 226 226 225 226 228 231 235 238 240
337 343 346 343 341 344 332 237 326 346 8 360 1 346 4 21 30 48 49 44 45 55 74 87 100 109 121 139 155 161 174 193 220 225 224 225 227 228 230 232 233 237 241 245
338 343 345 342 340 343 317 217 265 334 1 352 2 354 353 10 18 34 52 55 52 52 66 86 104 117 122 131 142 156 162 175 193 188 208 220 229 233 236 238 241 243 246 249
335 344 346 345 344 339 300 231 230 339 337 350 349 359 360 348 358 6 34 64 60 63 60 72 97 122 128 142 147 143 127 106 132 156 188 218 243 247 246 246 243 244 248 251
333 346 349 346 347 339 319 67 21 322 322 335 359 7 1 9 11 16 47 42 45 54 65 65 67 77 133 163 195 225 253 268 268 238 230 260 267 265 263 263 263 264 266 267
332 347 351 350 349 349 28 48 19 316 338 337 336 335 333 346 2 9 25 52 44 39 62 78 77 98 85 127 203 222 243 264 268 274 276 270 269 265 261 259 258 260 261 264
331 342 349 350 357 357 41 45 289 276 324 323 324 312 308 313 324 325 327 329 328 4 6 351 345 353 16 346 310 253 245 239 223 247 244 259 271 267 268 261 262 262 267 270
Height
10608 10603 10597 10591 10584 10575 10567 10561 10553 10541 10531 10537 10525 10526 10511 10512 10518 10517 10516 10518 10518 10521 10526 10533 10544 10553 10563 10569 10575 10585 10597 10608 10615 10624 10633 10642 10649 10654 10660 10667 10669 10674 10677 10681
10596 10589 10582 10574 10566 10555 10547 10538 10529 10520 10506 10506 10501 10493 10481 10481 10486 10484 10479 10481 10488 10489 10495 10503 10510 10523 10537 10547 10553 10563 10573 10585 10597 10606 10616 10625 10632 10636 10644 10649 10655 10660 10665 10666
10582 10574 10566 10556 10548 10539 10525 10515 10502 10493 10489 10478 10481 10464 10449 10446 10448 10445 10445 10446 10451 10455 10460 10469 10482 10491 10505 10518 10530 10537 10551 10562 10577 10587 10597 10605 10611 10620 10628 10635 10641 10649 10648 10653
10570 10560 10551 10541 10532 10521 10507 10492 10477 10471 10464 10451 10445 10438 10418 10412 10411 10413 10414 10415 10417 10425 10431 10440 10449 10462 10473 10489 10502 10515 10525 10542 10556 10566 10576 10589 10598 10603 10610 10617 10626 10634 10637 10634
10553 10544 10535 10523 10512 10499 10485 10469 10457 10445 10433 10419 10411 10405 10388 10382 10380 10380 10384 10386 10390 10394 10404 10412 10423 10434 10446 10462 10477 10491 10502 10516 10533 10548 10559 10571 10580 10588 10595 10604 10608 10616 10622 10625
10539 10529 10520 10508 10491 10475 10461 10448 10438 10422 10407 10393 10381 10374 10361 10357 10356 10352 10355 10360 10363 10369 10377 10388 10399 10408 10421 10436 10452 10468 10482 10493 10506 10525 10541 10552 10560 10571 10581 10588 10597 10602 10606 10611
10525 10515 10506 10495 10478 10456 10439 10433 10421 10404 10389 10373 10362 10351 10346 10338 10337 10335 10334 10336 10341 10345 10354 10365 10375 10385 10395 10412 10428 10448 10461 10471 10483 10499 10518 10534 10542 10556 10562 10569 10579 10586 10594 10600
10517 10503 10493 10478 10458 10442 10429 10414 10401 10386 10372 10356 10342 10337 10330 10324 10322 10320 10319 10322 10326 10331 10338 10344 10354 10365 10376 10390 10408 10424 10441 10451 10464 10475 10494 10512 10522 10538 10545 10552 10561 10567 10577 10585
10505 10490 10476 10461 10441 10427 10417 10401 10385 10367 10351 10342 10334 10324 10319 10314 10310 10307 10305 10306 10309 10313 10319 10328 10338 10347 10359 10373 10390 10404 10420 10432 10443 10457 10470 10488 10503 10515 10525 10532 10542 10552 10560 10568
10494 10479 10461 10447 10431 10416 10402 10388 10371 10357 10346 10334 10326 10320 10315 10309 10302 10299 10297 10296 10297 10301 10306 10311 10318 10331 10343 10357 10372 10387 10400 10411 10424 10437 10451 10466 10482 10495 10506 10515 10525 10535 10542 10550
10486 10472 10450 10434 10419 10405 10392 10376 10360 10349 10340 10332 10324 10319 10312 10305 10298 10293 10289 10287 10286 10289 10293 10298 10304 10314 10327 10339 10354 10367 10381 10393 10406 10420 10435 10451 10462 10476 10488 10497 10508 10517 10523 10530
10475 10463 10442 10423 10411 10395 10380 10365 10353 10341 10334 10327 10321 10316 10310 10303 10297 10291 10285 10281 10281 10282 10284 10288 10293 10300 10312 10324 10337 10349 10362 10376 10390 10406 10419 10430 10443 10456 10470 10481 10492 10499 10505 10513
10465 10454 10439 10416 10403 10389 10373 10359 10349 10340 10334 10329 10323 10317 10308 10301 10293 10285 10279 10275 10273 10273 10276 10280 10286 10292 10300 10310 10322 10337 10351 10364 10376 10388 10401 10412 10425 10438 10453 10465 10472 10480 10489 10497
10455 10440 10427 10411 10398 10382 10369 10357 10348 10341 10336 10332 10327 10322 10313 10304 10295 10285 10277 10270 10265 10265 10267 10272 10277 10284 10291 10300 10312 10327 10338 10350 10363 10376 10387 10396 10409 10423 10436 10447 10454 10466 10474 10482
10452 10437 10421 10405 10392 10379 10367 10358 10351 10346 10341 10336 10330 10322 10315 10305 10295 10284 10274 10266 10261 10259 10260 10264 10268 10276 10285 10295 10305 10316 10327 10338 10351 10365 10375 10384 10396 10409 10421 10429 10440 10453 10460 10462
10446 10434 10418 10405 10390 10377 10366 10358 10354 10348 10343 10338 10331 10323 10313 10302 10293 10284 10274 10266 10260 10257 10257 10258 10263 10273 10282 10291 10300 10310 10319 10329 10340 10352 10362 10372 10384 10396 10406 10413 10421 10435 10444 10452
10440 10428 10413 10402 10388 10375 10363 10359 10356 10352 10347 10342 10336 10328 10321 10310 10300 10287 10276 10267 10262 10258 10257 10258 10261 10271 10280 10289 10297 10306 10314 10323 10331 10341 10349 10361 10374 10382 10389 10399 10408 10419 10428 10435
10435 10423 10408 10396 10385 10373 10363 10359 10358 10354 10351 10347 10342 10335 10327 10314 10302 10290 10280 10273 10267 10262 10260 10260 10263 10272 10281 10289 10297 10305 10311 10318 10326 10333 10341 10351 10360 10370 10378 10386 10396 10403 10410 10411
10429 10417 10406 10394 10382 10372 10362 10359 10359 10357 10354 10350 10344 10338 10332 10320 10308 10296 10290 10283 10276 10271 10268 10267 10269 10275 10283 10292 10299 10305 10311 10317 10323 10329 10335 10342 10350 10359 10367 10375 10382 10388 10393 10399
10424 10411 10402 10390 10379 10370 10362 10359 10360 10358 10356 10352 10346 10341 10335 10327 10318 10312 10303 10294 10287 10281 10279 10278 10280 10284 10290 10297 10303 10309 10314 10319 10324 10328 10332 10337 10344 10351 10358 10364 10370 10377 10382 10386
10418 10406 10396 10386 10376 10368 10360 10358 10360 10359 10357 10355 10351 10346 10341 10335 10330 10323 10315 10306 10300 10295 10292 10292 10292 10295 10300 10305 10309 10313 10317 10322 10324 10327 10330 10334 10339 10345 10350 10357 10363 10367 10371 10375
10413 10404 10393 10383 10373 10363 10357 10357 10359 10359 10358 10356 10354 10351 10347 10343 10337 10332 10324 10318 10312 10308 10307 10304 10303 10305 10308 10313 10316 10318 10322 10325 10326 10327 10329 10333 10337 10341 10346 10351 10355 10358 10360 10362
10409 10399 10390 10381 10369 10359 10355 10355 10357 10358 10357 10355 10354 10352 10350 10347 10343 10337 10332 10326 10323 10320 10318 10316 10316 10317 10317 10318 10321 10323 10325 10326 10328 10329 10331 10334 10336 10339 10341 10344 10347 10348 10350 10350
10406 10397 10387 10376 10367 10357 10354 10354 10356 10357 10356 10355 10355 10353 10351 10348 10345 10341 10337 10333 10331 10329 10326 10325 10324 10324 10324 10326 10326 10326 10327 10327 10328 10329 10331 10333 10335 10336 10337 10337 10338 10338 10338 10338
10403 10393 10385 10378 10368 10359 10356 10355 10356 10356 10356 10355 10355 10353 10351 10348 10346 10344 10341 10338 10335 10334 10333 10330 10329 10329 10328 10328 10328 10328 10328 10329 10330 10330 10330 10330 10330 10330 10330 10330 10330 10329 10327 10325
10398 10390 10383 10377 10371 10362 10358 10355 10355 10355 10354 10353 10352 10350 10348 10347 10344 10342 10341 10339 10337 10335 10333 10332 10331 10330 10330 10330 10329 10329 10328 10328 10327 10327 10326 10326 10325 10324 10323 10322 10321 10319 10317 10315